Wrangell, AK

2:36 PM AKST on February 25, 2017 (GMT -0900)
Wrangell

Weather History for PAWG - January, 2014

Change the Weather History Date:

Wednesday, January 29, 2014

  Actual Average Record
Temperature  
Mean Temperature 36 °F -  
Max Temperature 39 °F 35 °F 49 °F (1983)
Min Temperature 33 °F 24 °F 0 °F (1951)
Degree Days  
Heating Degree Days 29    
Moisture  
Dew Point 32 °F    
Average Humidity 83    
Maximum Humidity 93    
Minimum Humidity 75    
Precipitation  
Precipitation 0.00 in - - ()
Sea Level Pressure  
Sea Level Pressure 30.01 in    
Wind  
Wind Speed 6 mph (WNW)    
Max Wind Speed 15 mph    
Max Gust Speed -    
Visibility 10 miles    
Events      
Averages and records for this station are not official NWS values.
T = Trace of Precipitation, MM = Missing Value Source: NWS Daily Summary

Daily Weather History Graph

Daily Weather History Graph

Search for Another Location

Airport or City:

Trip Planner

Search our weather history database for the weather conditions in past years. The results will help you decide how hot, cold, wet, or windy it might be!

Date:

Astronomy

Jan. 29, 2014 Rise Set
Actual Time 7:51 AM AKST 4:14 PM AKST
Civil Twilight 7:09 AM AKST 4:56 PM AKST
Nautical Twilight 6:23 AM AKST 5:42 PM AKST
Astronomical Twilight 5:39 AM AKST 6:26 PM AKST
Moon 6:35 AM AKST (1/29) 3:24 PM AKST (1/29)
Length of Visible Light 9h 47m
Length of Day
8h 22m
Waning Crescent, 2% of the Moon is Illuminated
Jan 29
Waning Crescent
Jan 30
New
Feb 6
First Quarter
Feb 14
Full
Feb 22
Last Quarter

Hourly Weather History & Observations

Time (AKST) Temp. Windchill Dew Point Humidity Pressure Visibility Wind Dir Wind Speed Gust Speed Precip Events Conditions
12:16 AM 37.4 °F 33.8 °F 33.8 °F 87% 30.09 in 10.0 mi NW 4.6 mph - N/A   Overcast
12:36 AM 37.4 °F 34.9 °F 32.0 °F 81% 30.08 in 10.0 mi NW 3.5 mph - N/A   Overcast
12:56 AM 37.4 °F 34.9 °F 32.0 °F 81% 30.08 in 10.0 mi NW 3.5 mph - N/A   Overcast
1:16 AM 37.4 °F 34.9 °F 33.8 °F 87% 30.07 in 10.0 mi West 3.5 mph - N/A   Overcast
1:36 AM 37.4 °F 34.9 °F 33.8 °F 87% 30.07 in 10.0 mi WNW 3.5 mph - N/A   Overcast
1:56 AM 37.4 °F 34.9 °F 33.8 °F 87% 30.07 in 10.0 mi NNW 3.5 mph - N/A   Overcast
2:16 AM 37.4 °F 33.8 °F 33.8 °F 87% 30.06 in 10.0 mi West 4.6 mph - N/A   Overcast
2:36 AM 37.4 °F - 35.6 °F 93% 30.06 in 10.0 mi Calm Calm - N/A   Overcast
2:56 AM 39.2 °F 32.5 °F 33.8 °F 81% 30.05 in 10.0 mi WSW 10.4 mph - N/A   Overcast
3:16 AM 39.2 °F 34.2 °F 35.6 °F 87% 30.05 in 10.0 mi West 6.9 mph - N/A   Overcast
3:36 AM 39.2 °F 35.0 °F 33.8 °F 81% 30.04 in 10.0 mi West 5.8 mph - N/A   Overcast
3:56 AM 39.2 °F 33.0 °F 33.8 °F 81% 30.04 in 10.0 mi West 9.2 mph - N/A   Overcast
4:16 AM 39.2 °F 32.0 °F 33.8 °F 81% 30.03 in 10.0 mi West 11.5 mph - N/A   Overcast
4:36 AM 39.2 °F 31.6 °F 33.8 °F 81% 30.02 in 10.0 mi West 12.7 mph - N/A   Overcast
4:56 AM 39.2 °F 30.8 °F 32.0 °F 75% 30.02 in 10.0 mi West 15.0 mph - N/A   Overcast
5:16 AM 37.4 °F 29.3 °F 33.8 °F 87% 30.02 in 10.0 mi West 12.7 mph - N/A   Overcast
5:36 AM 37.4 °F 28.9 °F 32.0 °F 81% 30.01 in 10.0 mi West 13.8 mph - N/A   Overcast
5:56 AM 37.4 °F 29.8 °F 33.8 °F 87% 30.01 in 10.0 mi West 11.5 mph - N/A   Overcast
6:16 AM 37.4 °F 30.8 °F 32.0 °F 81% 30.01 in 10.0 mi WSW 9.2 mph - N/A   Overcast
6:36 AM 37.4 °F 30.8 °F 32.0 °F 81% 30.01 in 10.0 mi WSW 9.2 mph - N/A   Overcast
6:56 AM 37.4 °F 31.4 °F 32.0 °F 81% 30.01 in 10.0 mi West 8.1 mph - N/A   Overcast
7:16 AM 37.4 °F 30.8 °F 32.0 °F 81% 30.01 in 10.0 mi West 9.2 mph - N/A   Overcast
7:36 AM 37.4 °F 32.1 °F 32.0 °F 81% 30.01 in 10.0 mi West 6.9 mph - N/A   Overcast
7:56 AM 37.4 °F 32.8 °F 32.0 °F 81% 30.01 in 10.0 mi WSW 5.8 mph - N/A   Overcast
8:16 AM 37.4 °F 32.1 °F 32.0 °F 81% 30.00 in 10.0 mi SW 6.9 mph - N/A   Overcast
8:36 AM 37.4 °F 32.1 °F 32.0 °F 81% 30.00 in 10.0 mi West 6.9 mph - N/A   Overcast
8:56 AM 37.4 °F 32.8 °F 32.0 °F 81% 30.00 in 10.0 mi WSW 5.8 mph - N/A   Overcast
9:16 AM 37.4 °F - 32.0 °F 81% 30.00 in 10.0 mi Calm Calm - N/A   Overcast
9:36 AM 37.4 °F 34.9 °F 33.8 °F 87% 30.00 in 10.0 mi NW 3.5 mph - N/A   Overcast
9:56 AM 37.4 °F 30.8 °F 33.8 °F 87% 30.00 in 10.0 mi West 9.2 mph - N/A   Overcast
10:16 AM 37.4 °F 32.8 °F 33.8 °F 87% 30.00 in 10.0 mi West 5.8 mph - N/A   Overcast
10:36 AM 39.2 °F 34.2 °F 32.0 °F 75% 30.00 in 10.0 mi West 6.9 mph - N/A   Overcast
10:56 AM 37.4 °F 33.8 °F 33.8 °F 87% 30.00 in 10.0 mi WNW 4.6 mph - N/A   Overcast
11:16 AM 37.4 °F 33.8 °F 33.8 °F 87% 30.00 in 10.0 mi WNW 4.6 mph - N/A   Overcast
11:36 AM 37.4 °F 32.8 °F 33.8 °F 87% 30.00 in 10.0 mi NNW 5.8 mph - N/A   Overcast
11:56 AM 37.4 °F 34.9 °F 32.0 °F 81% 30.00 in 10.0 mi West 3.5 mph - N/A   Overcast
12:16 PM 37.4 °F 33.8 °F 33.8 °F 87% 30.00 in 10.0 mi NW 4.6 mph - N/A   Overcast
12:36 PM 37.4 °F 33.8 °F 33.8 °F 87% 30.00 in 10.0 mi NNW 4.6 mph - N/A   Overcast
12:56 PM 37.4 °F 32.8 °F 33.8 °F 87% 30.01 in 10.0 mi NW 5.8 mph - N/A   Mostly Cloudy
1:16 PM 37.4 °F 32.8 °F 33.8 °F 87% 30.00 in 10.0 mi NW 5.8 mph - N/A   Mostly Cloudy
1:36 PM 37.4 °F 33.8 °F 33.8 °F 87% 30.00 in 10.0 mi NW 4.6 mph - N/A   Mostly Cloudy
1:56 PM 37.4 °F 34.9 °F 33.8 °F 87% 30.00 in 10.0 mi West 3.5 mph - N/A   Mostly Cloudy
2:16 PM 39.2 °F 37.0 °F 33.8 °F 81% 29.99 in 10.0 mi West 3.5 mph - N/A   Mostly Cloudy
2:36 PM 37.4 °F 34.9 °F 33.8 °F 87% 30.00 in 10.0 mi NNW 3.5 mph - N/A   Mostly Cloudy
2:56 PM 37.4 °F - 33.8 °F 87% 30.00 in 10.0 mi Calm Calm - N/A   Mostly Cloudy
3:16 PM 37.4 °F 32.8 °F 33.8 °F 87% 30.00 in 10.0 mi NW 5.8 mph - N/A   Mostly Cloudy
3:36 PM 37.4 °F 32.8 °F 33.8 °F 87% 29.99 in 10.0 mi NW 5.8 mph - N/A   Mostly Cloudy
3:56 PM 37.4 °F 33.8 °F 32.0 °F 81% 29.99 in 10.0 mi WNW 4.6 mph - N/A   Mostly Cloudy
4:16 PM 37.4 °F 34.9 °F 32.0 °F 81% 29.99 in 10.0 mi WNW 3.5 mph - N/A   Mostly Cloudy
4:36 PM 37.4 °F 33.8 °F 32.0 °F 81% 29.99 in 10.0 mi West 4.6 mph - N/A   Mostly Cloudy
4:56 PM 37.4 °F 34.9 °F 32.0 °F 81% 29.99 in 10.0 mi West 3.5 mph - N/A   Mostly Cloudy
5:16 PM 37.4 °F 33.8 °F 32.0 °F 81% 29.99 in 10.0 mi NW 4.6 mph - N/A   Mostly Cloudy
5:36 PM 37.4 °F 32.8 °F 32.0 °F 81% 29.99 in 10.0 mi WNW 5.8 mph - N/A   Mostly Cloudy
5:56 PM 37.4 °F 34.9 °F 32.0 °F 81% 29.99 in 10.0 mi WNW 3.5 mph - N/A   Mostly Cloudy
6:16 PM 37.4 °F 32.8 °F 32.0 °F 81% 29.98 in 10.0 mi WNW 5.8 mph - N/A   Mostly Cloudy
6:36 PM 35.6 °F 30.7 °F 32.0 °F 87% 29.99 in 10.0 mi WNW 5.8 mph - N/A   Mostly Cloudy
6:56 PM 35.6 °F 30.7 °F 32.0 °F 87% 29.99 in 10.0 mi NW 5.8 mph - N/A   Mostly Cloudy
7:16 PM 35.6 °F 30.7 °F 30.2 °F 81% 29.99 in 10.0 mi NW 5.8 mph - N/A   Overcast
7:36 PM 35.6 °F 30.7 °F 30.2 °F 81% 29.99 in 10.0 mi NW 5.8 mph - N/A   Overcast
7:56 PM 35.6 °F 30.7 °F 30.2 °F 81% 29.99 in 10.0 mi WNW 5.8 mph - N/A   Overcast
8:16 PM 35.6 °F 30.7 °F 30.2 °F 81% 29.99 in 10.0 mi WNW 5.8 mph - N/A   Overcast
8:36 PM 35.6 °F 29.9 °F 30.2 °F 81% 29.99 in 10.0 mi WNW 6.9 mph - N/A   Overcast
8:56 PM 35.6 °F 31.7 °F 30.2 °F 81% 29.99 in 10.0 mi West 4.6 mph - N/A   Overcast
9:16 PM 35.6 °F 31.7 °F 30.2 °F 81% 29.99 in 10.0 mi WSW 4.6 mph - N/A   Overcast
9:36 PM 35.6 °F 31.7 °F 30.2 °F 81% 29.99 in 10.0 mi West 4.6 mph - N/A   Overcast
9:56 PM 37.4 °F 34.9 °F 30.2 °F 75% 29.99 in 10.0 mi West 3.5 mph - N/A   Overcast
10:16 PM 35.6 °F 32.8 °F 32.0 °F 87% 30.00 in 10.0 mi West 3.5 mph - N/A   Overcast
10:36 PM 35.6 °F 30.7 °F 30.2 °F 81% 30.00 in 10.0 mi NW 5.8 mph - N/A   Mostly Cloudy
10:56 PM 35.6 °F 32.8 °F 30.2 °F 81% 30.00 in 10.0 mi West 3.5 mph - N/A   Mostly Cloudy
11:16 PM 35.6 °F - 30.2 °F 81% 30.00 in 10.0 mi Calm Calm - N/A   Scattered Clouds
11:36 PM 33.8 °F 30.8 °F 28.4 °F 81% 30.01 in 10.0 mi WNW 3.5 mph - N/A   Clear
11:56 PM 35.6 °F 31.7 °F 30.2 °F 81% 30.01 in 10.0 mi WNW 4.6 mph - N/A   Clear